Anchorage, AK

7:55 PM AKST on February 06, 2016 (GMT -0900)
Lake Hood

Weather History for PALH - December, 2012

Change the Weather History Date:

Thursday, December 6, 2012

  Actual Average (PANC) Record (PANC)
Temperature  
Mean Temperature 4 °F 20 °F  
Max Temperature 9 °F 25 °F 41 °F (1969)
Min Temperature 0 °F 14 °F -28 °F (1916)
Degree Days  
Heating Degree Days 60    
Month to date heating degree days  
Since 1 July heating degree days  
Cooling Degree Days 0    
Month to date cooling degree days  
Year to date cooling degree days  
Moisture  
Dew Point -4 °F    
Average Humidity 69    
Maximum Humidity 80    
Minimum Humidity 56    
Precipitation  
Precipitation 0.00 in 0.03 in 0.58 in (1991)
Month to date precipitation 0.22  
Year to date precipitation 15.69  
Snow  
Snow 0.00 in 0.60 in 6.80 in (1991)
Month to date snowfall 3.3  
Since 1 July snowfall 24.7  
Snow Depth -    
Sea Level Pressure  
Sea Level Pressure 29.78 in    
Wind  
Wind Speed 3 mph (East)    
Max Wind Speed 6 mph    
Max Gust Speed -    
Visibility 10 miles    
Events      
T = Trace of Precipitation, MM = Missing Value Source: NWS Daily Summary

Daily Weather History Graph

Daily Weather History Graph

Search for Another Location

Airport or City:

Trip Planner

Search our weather history database for the weather conditions in past years. The results will help you decide how hot, cold, wet, or windy it might be!

Date:

Astronomy

Dec. 06, 2012 Rise Set
Actual Time 9:56 AM AKST 3:45 PM AKST
Civil Twilight 8:56 AM AKST 4:45 PM AKST
Nautical Twilight 7:58 AM AKST 5:43 PM AKST
Astronomical Twilight 7:05 AM AKST 6:36 PM AKST
Moon 12:24 AM AKST (12/6) 1:05 PM AKST (12/6)
Length of Visible Light 7h 48m
Length of Day
5h 48m
Waning Gibbous, 48% of the Moon is Illuminated
Dec 6
Waning Gibbous
Dec 12
New
Dec 19
First Quarter
Dec 28
Full
Jan 4
Last Quarter

Hourly Weather History & Observations

Time (AKST) Temp. Windchill Dew Point Humidity Pressure Visibility Wind Dir Wind Speed Gust Speed Precip Events Conditions
12:53 AM 1.9 °F -7.6 °F -8.0 °F 63% 29.65 in 10.0 mi East 4.6 mph - N/A   Scattered Clouds
1:53 AM 1.9 °F -7.6 °F -6.0 °F 69% 29.65 in 10.0 mi ENE 4.6 mph - N/A   Overcast
3:53 AM 3.0 °F -8.0 °F -6.0 °F 66% 29.66 in 10.0 mi East 5.8 mph - N/A   Overcast
4:53 AM 3.0 °F -6.4 °F -6.0 °F 66% 29.66 in 10.0 mi East 4.6 mph - N/A   Overcast
5:53 AM 5.0 °F -2.1 °F -5.1 °F 63% 29.67 in 10.0 mi East 3.5 mph - N/A   Overcast
6:53 AM 6.1 °F -0.9 °F -4.0 °F 63% 29.68 in 10.0 mi East 3.5 mph - N/A   Overcast
7:53 AM 5.0 °F -4.1 °F -4.0 °F 66% 29.70 in 10.0 mi East 4.6 mph - N/A   Mostly Cloudy
8:53 AM 5.0 °F -4.1 °F -4.0 °F 66% 29.71 in 10.0 mi ESE 4.6 mph - N/A   Mostly Cloudy
9:53 AM 3.9 °F -6.9 °F -5.1 °F 66% 29.73 in 10.0 mi SE 5.8 mph - N/A   Partly Cloudy
10:53 AM 3.0 °F - -4.0 °F 73% 29.76 in 10.0 mi Calm Calm - N/A   Clear
11:53 AM 6.1 °F - -2.9 °F 67% 29.78 in 10.0 mi Calm Calm - N/A   Clear
12:53 PM 6.1 °F - -2.9 °F 67% 29.79 in 10.0 mi Calm Calm - N/A   Clear
1:53 PM 8.1 °F - -2.9 °F 61% 29.80 in 10.0 mi Calm Calm - N/A   Clear
2:53 PM 9.0 °F - -4.0 °F 56% 29.81 in 10.0 mi Calm Calm - N/A   Clear
3:53 PM 6.1 °F - -4.0 °F 63% 29.82 in 10.0 mi Calm Calm - N/A   Clear
4:53 PM 5.0 °F - -2.9 °F 70% 29.83 in 10.0 mi Calm Calm - N/A   Clear
5:53 PM 3.0 °F - -2.9 °F 76% 29.84 in 10.0 mi Calm Calm - N/A   Clear
6:53 PM 1.9 °F - -4.0 °F 76% 29.86 in 8.0 mi Calm Calm - N/A   Clear
7:53 PM 3.9 °F - -2.0 °F 76% 29.87 in 10.0 mi Calm Calm - N/A   Clear
8:53 PM 1.9 °F - -2.9 °F 80% 29.88 in 10.0 mi Calm Calm - N/A   Clear
9:53 PM 1.9 °F - -2.9 °F 80% 29.89 in 10.0 mi Calm Calm - N/A   Clear
10:53 PM -0.0 °F - -5.1 °F 79% 29.90 in 10.0 mi Calm Calm - N/A   Clear
11:53 PM -0.0 °F - -5.1 °F 79% 29.91 in 10.0 mi Calm Calm - N/A   Clear